timestamp,surface_pressure_avg,surface_temp_avg,battery_voltage,lat,long
2023-10-26 00:09:01+00:00,269.7014,10.6,11.37,47.84626,-54.09684
2023-10-26 00:19:01+00:00,267.5048,10.6,11.37,47.84626,-54.09684
2023-10-26 00:29:01+00:00,262.2614,10.63,11.37,47.84626,-54.09684
2023-10-26 00:39:01+00:00,252.4348,10.62,11.37,47.84626,-54.09684
2023-10-26 00:49:01+00:00,247.0431,10.63,11.37,47.84626,-54.09684
2023-10-26 00:59:01+00:00,244.0981,10.62,11.37,47.84626,-54.09684
2023-10-26 01:09:01+00:00,238.1614,10.6,11.37,47.84626,-54.09684
2023-10-26 01:19:00+00:00,230.7997,10.62,11.37,47.84626,-54.09684
2023-10-26 01:29:00+00:00,227.6764,10.64,11.37,47.84626,-54.09684
2023-10-26 01:39:00+00:00,224.0448,10.65,11.37,47.84626,-54.09684
2023-10-26 01:49:00+00:00,218.1664,10.65,11.37,47.84626,-54.09684
2023-10-26 01:59:00+00:00,209.6348,10.6,11.37,47.84626,-54.09684
2023-10-26 02:09:00+00:00,202.6681,10.6,11.37,47.84626,-54.09684
2023-10-26 02:19:00+00:00,202.0365,10.6,11.37,47.84626,-54.09684
2023-10-26 02:29:00+00:00,201.7698,10.6,11.37,47.84626,-54.09684
2023-10-26 02:39:00+00:00,196.1148,10.58,11.37,47.84626,-54.09684
2023-10-26 02:49:00+00:00,190.9365,10.4,11.37,47.84626,-54.09684
2023-10-26 02:59:00+00:00,193.6764,10.39,11.37,47.84626,-54.09684
2023-10-26 03:09:00+00:00,194.8914,10.34,11.37,47.84626,-54.09684
2023-10-26 03:19:00+00:00,190.7398,10.3,11.37,47.84626,-54.09684
2023-10-26 03:29:00+00:00,193.1248,10.3,11.37,47.84626,-54.09684
2023-10-26 03:39:00+00:00,200.5515,10.3,11.37,47.84626,-54.09684
2023-10-26 03:49:00+00:00,197.6215,10.3,11.37,47.84626,-54.09684
2023-10-26 03:59:00+00:00,199.0281,10.24,11.37,47.84626,-54.09684
2023-10-26 04:09:00+00:00,208.8931,10.24,11.37,47.84626,-54.09684
2023-10-26 04:19:00+00:00,210.6698,10.29,11.3,47.84626,-54.09684
2023-10-26 04:29:00+00:00,211.468,10.3,11.3,47.84626,-54.09684
2023-10-26 04:39:00+00:00,220.0681,10.3,11.3,47.84626,-54.09684
2023-10-26 04:49:00+00:00,226.2731,10.3,11.3,47.84626,-54.09684
2023-10-26 04:59:00+00:00,227.7747,10.33,11.3,47.84626,-54.09684
2023-10-26 05:09:00+00:00,233.2381,10.39,11.3,47.84626,-54.09684
2023-10-26 05:19:00+00:00,242.3364,10.4,11.3,47.84626,-54.09684
2023-10-26 05:29:00+00:00,246.0398,10.4,11.3,47.84626,-54.09684
2023-10-26 05:39:00+00:00,247.0964,10.4,11.3,47.84626,-54.09684
2023-10-26 05:49:00+00:00,251.4464,10.4,11.3,47.84626,-54.09684
2023-10-26 05:59:00+00:00,259.3064,10.4,11.3,47.84626,-54.09684
2023-10-26 06:09:00+00:00,262.7431,10.4,11.3,47.84626,-54.09684
2023-10-26 06:19:00+00:00,266.5464,10.4,11.3,47.84626,-54.09684
2023-10-26 06:29:00+00:00,272.0581,10.4,11.3,47.84626,-54.09684
2023-10-26 06:39:00+00:00,280.7114,10.4,11.3,47.84626,-54.09684
2023-10-26 06:49:00+00:00,285.1814,10.4,11.3,47.84626,-54.09684
2023-10-26 06:59:00+00:00,290.8914,10.4,11.3,47.84626,-54.09684
2023-10-26 07:09:00+00:00,297.953,10.4,11.3,47.84626,-54.09684
2023-10-26 07:19:00+00:00,308.4647,10.45,11.3,47.84626,-54.09684
2023-10-26 07:29:00+00:00,315.543,10.44,11.3,47.84626,-54.09684
2023-10-26 07:39:00+00:00,320.33299999999997,10.4,11.3,47.84626,-54.09684
2023-10-26 07:49:00+00:00,322.7796,10.4,11.3,47.84626,-54.09684
2023-10-26 07:59:00+00:00,331.3463,10.4,11.3,47.84626,-54.09684
2023-10-26 08:09:00+00:00,337.1179,10.4,11.3,47.84626,-54.09684
2023-10-26 08:19:00+00:00,337.538,10.4,11.3,47.84626,-54.09684
2023-10-26 08:29:00+00:00,338.4947,10.38,11.3,47.84626,-54.09684
2023-10-26 08:39:00+00:00,342.4646,10.37,11.3,47.84626,-54.09684
2023-10-26 08:49:00+00:00,345.218,10.38,11.3,47.84626,-54.09684
2023-10-26 08:59:00+00:00,344.81300000000016,10.39,11.3,47.84626,-54.09684
2023-10-26 09:09:00+00:00,346.1146,10.39,11.3,47.84626,-54.09684
2023-10-26 09:19:00+00:00,348.983,10.39,11.3,47.84626,-54.09684
2023-10-26 09:29:00+00:00,352.1847,10.4,11.3,47.84626,-54.09684
2023-10-26 09:39:00+00:00,352.5896,10.4,11.3,47.84626,-54.09684
2023-10-26 09:49:00+00:00,351.338,10.4,11.3,47.84626,-54.09684
2023-10-26 09:59:00+00:00,350.4479,10.4,11.3,47.84626,-54.09684
2023-10-26 10:09:00+00:00,350.6246,10.4,11.3,47.84626,-54.09684
2023-10-26 10:19:00+00:00,349.5863,10.39,11.3,47.84626,-54.09684
2023-10-26 10:29:00+00:00,347.5347,10.4,11.3,47.84626,-54.09684
2023-10-26 10:39:00+00:00,344.1964,10.4,11.3,47.84626,-54.09684
2023-10-26 10:49:00+00:00,339.86300000000006,10.4,11.3,47.84626,-54.09684
2023-10-26 10:59:00+00:00,330.968,10.4,11.3,47.84626,-54.09684
2023-10-26 11:09:00+00:00,324.593,10.4,11.3,47.84626,-54.09684
2023-10-26 11:19:00+00:00,319.1797,10.4,11.3,47.84626,-54.09684
2023-10-26 11:29:00+00:00,315.723,10.4,11.3,47.84626,-54.09684
2023-10-26 11:39:00+00:00,307.118,10.4,11.3,47.84626,-54.09684
2023-10-26 11:49:00+00:00,297.358,10.4,11.3,47.84626,-54.09684
2023-10-26 11:59:00+00:00,290.83799999999997,10.4,11.3,47.84626,-54.09684
2023-10-26 12:09:00+00:00,284.753,10.4,11.3,47.84626,-54.09684
2023-10-26 12:19:00+00:00,274.4697,10.4,11.3,47.84626,-54.09684
2023-10-26 12:29:00+00:00,263.238,10.4,11.3,47.84626,-54.09684
2023-10-26 12:39:00+00:00,254.2148,10.39,11.3,47.84626,-54.09684
2023-10-26 12:49:00+00:00,246.4731,10.36,11.3,47.84626,-54.09684
2023-10-26 12:59:00+00:00,243.0482,10.36,11.3,47.84626,-54.09684
2023-10-26 13:09:00+00:00,240.1198,10.36,11.3,47.84626,-54.09684
2023-10-26 13:19:00+00:00,232.3881,10.4,11.37,47.84626,-54.09684
2023-10-26 13:29:00+00:00,225.3164,10.4,11.37,47.84626,-54.09684
2023-10-26 13:39:00+00:00,226.9031,10.4,11.37,47.84626,-54.09684
2023-10-26 13:49:00+00:00,221.6148,10.4,11.37,47.84626,-54.09684
2023-10-26 13:59:00+00:00,210.1547,10.4,11.37,47.84626,-54.09684
2023-10-26 14:09:00+00:00,207.9981,10.4,11.37,47.84626,-54.09684
2023-10-26 14:19:00+00:00,208.3831,10.4,11.3,47.84626,-54.09684
2023-10-26 14:29:00+00:00,198.7481,10.4,11.3,47.84626,-54.09684
2023-10-26 14:39:00+00:00,190.0014,10.4,11.3,47.84626,-54.09684
2023-10-26 14:49:00+00:00,193.2448,10.4,11.3,47.84626,-54.09684
2023-10-26 14:59:00+00:00,190.9532,10.4,11.3,47.84626,-54.09684
2023-10-26 15:09:00+00:00,186.2981,10.49,11.3,47.84626,-54.09684
2023-10-26 15:19:00+00:00,188.2198,10.49,11.3,47.84626,-54.09684
2023-10-26 15:29:00+00:00,190.3481,10.47,11.3,47.84626,-54.09684
2023-10-26 15:39:00+00:00,189.4698,10.5,11.3,47.84626,-54.09684
2023-10-26 15:49:00+00:00,187.1898,10.5,11.3,47.84626,-54.09684
2023-10-26 15:59:00+00:00,189.7281,10.5,11.3,47.84626,-54.09684
2023-10-26 16:09:00+00:00,193.1498,10.51,11.3,47.84626,-54.09684
2023-10-26 16:19:00+00:00,188.5565,10.5,11.3,47.84626,-54.09684
2023-10-26 16:29:00+00:00,185.2598,10.5,11.3,47.84626,-54.09684
2023-10-26 16:39:00+00:00,192.3198,10.5,11.3,47.84626,-54.09684
2023-10-26 16:49:00+00:00,194.2564,10.5,11.3,47.84626,-54.09684
2023-10-26 16:59:00+00:00,191.2814,10.5,11.3,47.84626,-54.09684
2023-10-26 17:09:00+00:00,198.3398,10.5,11.3,47.84626,-54.09684
2023-10-26 17:19:00+00:00,204.7948,10.5,11.37,47.84626,-54.09684
2023-10-26 17:29:00+00:00,205.4098,10.5,11.37,47.84626,-54.09684
2023-10-26 17:39:00+00:00,210.2831,10.54,11.37,47.84626,-54.09684
2023-10-26 17:49:00+00:00,217.1648,10.59,11.37,47.84626,-54.09684
2023-10-26 17:59:00+00:00,219.3315,10.6,11.37,47.84626,-54.09684
2023-10-26 18:09:00+00:00,224.8248,10.6,11.37,47.84626,-54.09684
2023-10-26 18:19:00+00:00,235.2648,10.6,11.3,47.84626,-54.09684
2023-10-26 18:29:00+00:00,241.5681,10.6,11.3,47.84626,-54.09684
2023-10-26 18:39:00+00:00,243.7697,10.5,11.3,47.84626,-54.09684
2023-10-26 18:49:00+00:00,250.2197,10.49,11.3,47.84626,-54.09684
2023-10-26 18:59:00+00:00,257.9597,10.5,11.3,47.84626,-54.09684
2023-10-26 19:09:00+00:00,266.2081,10.49,11.3,47.84626,-54.09684
2023-10-26 19:19:00+00:00,273.483,10.5,11.3,47.84626,-54.09684
2023-10-26 19:29:00+00:00,281.9331,10.5,11.3,47.84626,-54.09684
2023-10-26 19:39:00+00:00,292.7147,10.5,11.3,47.84626,-54.09684
2023-10-26 19:49:00+00:00,305.7563,10.49,11.3,47.84626,-54.09684
2023-10-26 19:59:00+00:00,313.9263,10.49,11.3,47.84626,-54.09684
2023-10-26 20:09:00+00:00,324.4729,10.49,11.3,47.84626,-54.09684
2023-10-26 20:19:00+00:00,334.0863,10.49,11.3,47.84626,-54.09684
2023-10-26 20:29:00+00:00,340.908,10.5,11.3,47.84626,-54.09684
2023-10-26 20:39:00+00:00,344.0647,10.49,11.3,47.84626,-54.09684
2023-10-26 20:49:00+00:00,348.5213,10.46,11.3,47.84626,-54.09684
2023-10-26 20:59:00+00:00,357.793,10.47,11.3,47.84626,-54.09684
2023-10-26 21:09:00+00:00,361.3863,10.47,11.3,47.84626,-54.09684
2023-10-26 21:19:00+00:00,365.11800000000005,10.46,11.3,47.84626,-54.09684
2023-10-26 21:29:00+00:00,371.17800000000005,10.45,11.3,47.84626,-54.09684
2023-10-26 21:39:00+00:00,373.5062,10.49,11.3,47.84626,-54.09684
2023-10-26 21:49:00+00:00,374.2962,10.49,11.3,47.84626,-54.09684
2023-10-26 21:59:00+00:00,374.3429,10.45,11.3,47.84626,-54.09684
2023-10-26 22:09:00+00:00,375.9979,10.46,11.3,47.84626,-54.09684
2023-10-26 22:19:01+00:00,368.7963,10.4,11.3,47.84626,-54.09684
2023-10-26 22:29:01+00:00,363.9746,10.45,11.3,47.84626,-54.09684
2023-10-26 22:39:01+00:00,364.718,10.47,11.3,47.84626,-54.09684
2023-10-26 22:49:01+00:00,360.5763,10.49,11.3,47.84626,-54.09684
2023-10-26 22:59:01+00:00,352.8929,10.48,11.3,47.84626,-54.09684
2023-10-26 23:09:01+00:00,347.0714,10.47,11.3,47.84626,-54.09684
2023-10-26 23:19:01+00:00,345.4012,10.48,11.3,47.84626,-54.09684
2023-10-26 23:29:01+00:00,340.0397,10.45,11.3,47.84626,-54.09684
2023-10-26 23:39:01+00:00,333.5796,10.47,11.3,47.84626,-54.09684
2023-10-26 23:49:01+00:00,329.4247,10.47,11.3,47.84626,-54.09684
2023-10-26 23:59:01+00:00,322.2029,10.48,11.3,47.84626,-54.09684
